Flag for Uruguay Weather past 2 weeks in Minas, Uruguay

Now
52 °F

Partly sunny.


Feels Like: 48 °F
Forecast: 39 / 56 °F
Wind: 12 mph from South

Location: Capitan Corbeta

Current Time: Jul 1, 2015 at 9:08:12 AM

Latest Report: Jul 1, 2015 at 8:00 AM


Visibility: N/A

Pressure: 30.15 "Hg

Humidity: 72%

Dew point: 43 °F

Location of MinasLocation

Historic Weather in Minas — Graph

°F

Minas temperature yesterday

Maximum temperature yesterday: 63 °F (at 1:00 PM)
Minimum temperature yesterday: 52 °F (at 8:00 AM)
Average temperature yesterday: 56 °F

Past Weeks' High & Low Weather Summary

 TemperatureHumidityPressure
High73 °F (Jun 27, 1:00 PM)100% (Jun 24, 2:00 AM)30.51 "Hg (Jun 24, 2:00 AM)
Low30 °F (Jun 24, 6:00 AM)26% (Jun 16, 4:00 PM)29.74 "Hg (Jun 30, 6:00 AM)
Average52 °F72%30.16 "Hg
* Reported Jun 16 8:00 AM — Jul 1 8:00 AM, Minas, Weather by CustomWeather, © 2015

Note: Actual official high and low records may vary slightly from our data, if they occured in-between our weather recording intervals... More about our weather records

Advertising

Minas weather history for previous 24 hours

 ConditionsComfort  
Time TempWeatherWind HumidityBarometerVisibility
8:00 AM
Wed, Jul 1
52 °FPartly sunny.12 mph72%30.15 "HgN/A
7:00 AM52 °FBroken clouds.13 mph77%30.12 "HgN/A
6:00 AM50 °FPartly cloudy.8 mph82%30.12 "HgN/A
5:00 AM50 °FPassing clouds.10 mph82%30.09 "HgN/A
4:00 AM50 °FPassing clouds.12 mph82%30.09 "HgN/A
3:00 AM50 °FPassing clouds.10 mph82%30.09 "HgN/A
2:00 AM50 °FPassing clouds.7 mph82%30.07 "HgN/A
1:00 AM50 °FPassing clouds.10 mph82%30.07 "HgN/A
12:00 AM52 °FPassing clouds.13 mph82%30.04 "HgN/A
11:00 PM
Tue, Jun 30
52 °FPassing clouds.16 mph82%30.01 "HgN/A
10:00 PM52 °FClear.17 mph77%29.98 "Hg10 mi
9:00 PM54 °FClear.18 mph77%29.95 "Hg10 mi
8:00 PM54 °FPassing clouds.12 mph77%29.95 "HgN/A
7:00 PM54 °FPassing clouds.9 mph82%29.92 "HgN/A
6:00 PM54 °FPassing clouds.9 mph82%29.89 "HgN/A
5:00 PM54 °FPassing clouds.12 mph82%29.89 "HgN/A
4:00 PM55 °FPartly sunny.18 mph82%29.83 "HgN/A
3:00 PM57 °FBroken clouds.17 mph72%29.83 "HgN/A
2:00 PM59 °FPartly sunny.20 mph68%29.80 "HgN/A
1:00 PM63 °FPartly sunny.17 mph68%29.83 "HgN/A
12:00 PM59 °FScattered clouds.14 mph82%N/AN/A
11:00 AM57 °FPartly sunny.12 mph94%29.83 "HgN/A
10:00 AM55 °FFog.8 mph94%29.80 "Hg4 mi
9:00 AM54 °FFog.9 mph94%29.80 "Hg3 mi
Weather by CustomWeather, © 2015

See weather overviewHow to use our weather pages